Theta_e
313 313 313 313 313 311 304 304 304 306 310 311 312 311 312 310 309 312 314 317 318 314 313 315 316 315 317 319 323 320 323 326 326 327 323 323 323 319 316 316 317 317 318 318 321
313 313 313 313 312 311 309 305 305 303 303 306 309 309 312 310 314 319 313 317 313 313 314 315 314 313 312 315 323 323 322 324 323 325 323 324 323 322 319 319 319 320 318 319 319
312 312 312 312 312 312 310 309 309 309 307 305 307 308 311 310 320 316 316 315 313 313 315 315 314 314 315 314 319 323 325 325 325 323 323 324 323 322 318 319 317 319 320 318 318
312 312 312 312 311 310 310 307 311 314 314 310 307 311 310 316 316 315 316 314 313 314 315 313 311 313 314 315 313 316 319 322 317 317 322 324 322 323 321 322 320 316 318 318 318
311 311 311 311 310 305 305 310 314 316 317 314 308 312 313 315 314 314 314 314 314 315 314 313 311 311 312 311 311 315 314 314 314 313 314 318 322 322 321 319 318 318 318 319 318
311 311 311 310 306 303 309 315 316 317 317 314 312 311 316 309 313 313 314 314 314 315 314 313 313 312 311 312 311 312 312 311 311 313 313 315 315 318 317 316 317 319 319 318 318
310 310 309 307 302 306 314 315 316 317 317 312 312 315 316 312 313 314 313 314 315 315 313 314 314 311 312 311 311 312 311 310 312 312 313 313 314 315 314 313 315 318 316 317 318
308 308 307 301 302 314 315 317 319 315 313 313 310 318 309 315 312 313 312 314 314 314 314 314 314 312 313 311 310 311 309 312 312 313 313 314 314 313 309 309 309 309 313 315 316
308 307 304 300 308 315 315 316 313 312 311 311 316 317 313 314 312 313 312 313 314 314 314 314 313 311 310 310 309 308 312 312 310 311 314 313 313 311 307 306 308 306 305 308 315
307 306 299 301 313 314 317 315 318 316 318 319 319 312 312 313 315 315 313 313 312 312 311 312 307 309 306 309 312 314 312 311 310 311 311 314 311 309 308 307 307 304 302 303 310
306 305 300 304 312 313 317 316 315 316 313 317 318 314 314 315 314 313 313 312 312 309 310 309 310 310 310 309 311 312 312 311 309 311 311 308 312 310 308 308 307 307 306 304 303
306 304 303 306 311 313 315 313 313 315 314 317 316 314 314 314 314 312 313 312 312 312 311 308 311 311 310 310 311 312 312 310 309 311 310 311 312 310 309 309 307 305 305 305 305
305 303 306 307 309 312 308 308 311 317 316 316 316 315 314 314 313 312 312 311 312 312 311 310 311 311 311 311 311 310 310 310 312 310 310 312 312 310 311 308 309 308 306 308 307
302 306 307 307 309 312 308 308 313 317 311 315 315 315 314 314 313 312 312 312 311 312 311 309 310 312 311 312 310 312 311 313 313 309 307 310 312 311 310 309 308 306 307 308 308
304 307 308 310 310 308 309 313 315 315 313 315 314 314 313 314 313 313 311 311 312 311 310 310 312 312 313 313 312 312 312 312 312 310 312 311 311 310 310 311 309 307 307 308 308
307 308 308 308 308 309 312 316 315 310 315 315 313 313 313 312 312 312 312 309 310 312 311 310 310 312 312 312 312 311 312 311 310 309 312 311 311 311 311 312 311 309 308 308 307
307 307 307 307 306 307 312 313 309 310 313 316 316 315 314 313 313 312 311 310 311 313 311 309 312 311 311 311 311 310 310 313 316 315 316 311 311 311 310 309 310 310 308 307 306
306 307 306 305 305 307 314 305 312 318 317 315 316 315 315 311 310 312 312 312 314 310 309 311 313 311 311 312 312 312 310 312 316 313 313 310 313 311 309 309 309 308 307 306 305
308 308 306 304 307 308 305 311 315 316 314 315 315 312 313 314 313 313 315 316 316 314 312 310 311 309 310 310 310 311 311 308 309 309 310 310 311 311 310 310 309 308 306 305 304
307 307 306 305 310 310 309 314 314 311 311 314 316 314 316 315 315 313 316 314 315 314 313 311 312 309 310 309 309 311 309 312 309 311 315 311 313 312 313 311 309 306 305 304 303
305 301 305 307 309 306 311 312 312 311 311 313 316 316 316 314 313 315 316 315 313 313 312 312 308 309 309 310 310 310 308 308 308 310 314 312 312 309 310 309 307 305 303 302 301
301 301 305 307 306 303 309 311 310 309 305 310 310 311 311 310 312 317 316 314 310 310 311 312 311 312 310 309 307 309 310 308 311 312 308 310 313 305 304 303 304 303 302 301 300
299 299 304 304 307 306 309 308 303 305 304 307 306 305 306 308 311 313 314 309 307 309 310 310 310 313 307 309 310 311 311 311 308 308 310 312 312 305 302 301 301 301 300 300 299
296 299 298 296 295 301 303 302 305 302 302 302 301 301 302 304 303 306 304 306 304 306 309 309 310 312 308 314 308 310 308 309 311 312 310 311 309 306 302 300 299 299 299 299 299
295 299 298 298 298 299 300 301 302 302 301 300 301 301 301 303 303 303 302 301 303 302 301 301 306 306 306 304 305 306 307 306 309 310 314 309 306 302 300 299 299 297 298 299 299
298 299 295 296 297 298 299 300 301 301 301 301 300 300 300 302 301 301 300 301 302 299 300 298 302 301 302 303 302 303 302 304 299 300 303 300 299 299 298 297 298 296 297 297 298
299 299 295 296 295 297 298 300 300 300 300 299 299 299 299 300 299 297 297 298 298 299 299 299 300 300 300 300 299 306 301 298 298 297 299 300 299 298 297 297 297 297 297 296 296
Wind_Speed
19 19 19 20 20 21 22 22 22 22 20 19 18 19 19 18 13 6 4 1 1 3 6 7 4 10 2 3 3 3 4 0 2 5 7 5 1 1 2 5 0 2 3 2 28
20 20 21 21 21 22 23 23 22 20 19 17 15 16 17 15 11 4 2 4 1 3 4 4 5 7 3 3 2 4 3 5 4 2 4 4 3 3 2 1 2 1 3 15 30
21 21 22 22 23 23 25 25 22 18 16 14 12 13 13 10 3 2 3 2 0 3 4 4 2 1 3 3 2 2 4 3 3 4 4 6 5 1 4 3 6 6 6 11 20
21 22 23 23 24 25 26 24 19 16 15 12 9 10 7 3 3 3 2 2 1 4 5 5 5 3 3 3 3 2 5 3 3 2 3 4 6 5 4 6 3 6 13 12 15
23 23 24 25 26 27 25 20 17 15 15 12 6 5 1 1 4 1 1 1 3 3 5 2 4 2 2 3 5 2 3 5 6 7 5 4 6 4 5 9 4 8 9 15 15
23 24 25 27 28 28 20 19 18 16 14 10 4 0 1 1 0 2 0 1 2 3 6 5 2 1 1 2 1 2 4 8 7 5 3 4 4 1 8 5 3 8 11 11 14
24 26 27 28 30 22 20 20 19 12 8 4 3 4 0 4 1 0 2 1 1 2 2 2 2 3 2 4 2 4 6 7 2 3 4 5 4 6 4 4 6 9 9 9 13
25 26 28 30 26 20 22 17 8 3 2 6 6 3 3 2 1 2 3 2 2 1 1 1 2 3 1 3 6 4 4 5 5 5 5 3 7 8 9 7 9 5 8 8 11
26 28 29 29 18 21 18 7 9 9 8 8 4 2 1 3 2 2 1 1 4 3 1 1 3 3 4 3 4 6 0 2 9 5 1 3 6 6 9 8 8 10 8 9 12
28 30 28 24 15 20 8 6 7 7 5 3 2 3 5 2 4 6 2 1 2 3 5 6 5 3 4 4 2 2 2 3 4 5 5 3 6 7 9 8 7 9 9 8 8
30 31 26 15 13 16 4 1 6 4 8 2 3 1 3 9 2 1 1 3 3 8 2 4 5 2 5 5 4 2 2 3 4 2 3 3 3 7 9 9 14 13 13 11 6
31 28 20 12 8 18 12 6 2 3 2 1 4 4 4 3 3 3 1 3 3 0 2 6 3 4 3 2 3 3 2 5 4 3 3 3 3 5 7 5 6 8 10 11 10
30 22 18 8 3 11 23 10 7 1 2 5 2 2 2 2 1 3 1 2 1 1 1 4 5 2 3 1 2 3 4 2 2 5 4 2 5 6 4 7 11 12 7 11 10
23 19 18 5 3 4 5 11 4 0 4 7 4 2 2 1 3 1 3 2 3 1 0 4 4 1 0 3 4 3 2 1 0 3 3 2 3 3 4 8 10 11 12 13 14
16 15 14 14 3 4 9 9 1 1 3 2 3 2 2 2 3 3 4 4 2 3 4 5 2 1 1 2 3 5 1 2 2 3 2 2 4 5 3 7 8 10 11 12 12
12 13 13 6 8 8 11 4 1 4 2 3 4 5 5 3 2 2 3 6 1 1 1 6 4 2 4 0 1 2 3 6 4 3 1 4 4 3 1 4 3 6 11 12 12
8 9 11 10 4 11 9 2 4 5 4 5 3 5 4 4 4 3 4 7 4 5 5 6 3 3 0 2 3 5 5 3 3 2 4 1 4 2 5 7 5 6 8 9 9
2 5 8 17 11 8 3 4 5 0 2 4 3 5 2 6 5 7 3 4 5 5 2 3 5 2 2 1 2 1 5 4 2 1 3 1 3 3 4 7 6 6 5 8 11
1 1 12 29 7 2 4 6 2 2 3 6 6 4 4 4 4 5 4 2 2 5 1 4 5 4 1 2 2 1 1 3 4 2 2 2 3 4 6 7 7 9 11 10 10
2 2 9 25 3 2 5 4 2 4 4 3 4 5 5 7 5 4 3 3 5 4 2 1 5 2 5 1 3 2 3 1 2 3 3 1 2 2 2 4 6 8 8 8 8
3 3 16 13 4 6 4 2 4 3 4 4 3 3 3 4 3 3 3 2 5 6 3 4 2 7 3 1 1 4 2 3 2 3 4 4 3 5 3 4 5 6 6 7 8
3 3 19 7 4 2 3 3 4 6 7 6 4 4 3 4 4 3 3 4 8 3 3 2 2 4 7 2 2 1 3 3 3 3 1 3 2 4 6 6 6 6 6 6 6
3 2 11 8 4 2 3 5 6 7 6 6 6 5 5 5 2 5 4 4 9 7 4 4 2 4 7 5 6 6 5 5 2 2 4 4 3 4 6 8 6 6 6 6 7
3 3 4 5 1 5 4 4 3 5 5 5 5 5 5 6 5 2 6 5 7 6 10 1 1 3 4 2 2 6 12 4 3 2 3 2 5 4 6 7 7 7 7 7 8
4 1 2 3 5 6 4 3 3 5 5 9 5 6 3 4 5 4 5 6 4 11 5 4 1 3 3 6 3 6 5 6 2 5 3 4 5 4 4 4 4 4 6 6 7
3 3 4 2 3 5 6 5 3 3 5 4 4 4 4 3 2 4 5 2 3 6 5 6 3 4 4 4 5 4 7 3 5 4 7 11 5 2 2 3 2 6 7 7 7
5 3 4 6 3 4 1 1 3 1 2 4 1 2 3 1 5 8 8 7 7 3 3 2 1 3 4 5 8 1 4 7 5 7 3 3 1 2 5 6 4 3 5 5 7
Wind_Direction
352 350 347 344 341 337 333 329 323 317 315 317 323 329 334 330 328 304 253 225 117 347 329 330 4 18 13 25 38 113 62 296 273 360 291 328 39 56 89 117 31 342 148 322 157
350 347 344 341 338 335 332 329 324 320 316 312 317 326 333 332 332 281 228 208 280 335 345 19 354 357 17 2 27 85 102 224 227 270 270 307 45 339 95 143 229 230 22 138 151
346 344 341 338 336 334 331 327 324 324 322 315 314 326 333 334 329 309 182 181 248 337 349 330 339 56 44 16 15 139 189 213 270 262 290 307 338 31 117 273 235 210 155 149 153
342 341 338 336 334 332 329 326 327 328 326 320 314 326 331 343 132 352 137 166 314 345 351 13 22 36 39 359 342 345 257 222 271 33 337 288 320 322 179 239 296 209 160 157 171
339 337 335 334 333 333 330 332 329 326 322 313 310 328 24 46 256 13 165 260 344 4 15 49 52 56 358 324 343 176 306 314 291 295 236 296 258 266 266 253 272 129 158 178 185
336 335 333 331 333 334 335 332 322 315 308 300 287 145 126 135 44 59 254 294 5 35 41 53 113 179 200 271 151 293 276 281 290 265 274 232 246 206 261 62 93 162 188 195 194
335 333 332 333 335 339 337 328 315 309 298 255 182 136 160 192 356 145 5 345 69 43 97 78 107 65 140 312 304 302 316 332 342 321 223 158 326 232 283 299 202 207 218 208 217
338 336 334 335 341 344 339 336 343 3 124 140 138 122 233 12 11 266 302 252 274 289 353 103 84 104 139 308 9 25 41 11 311 4 351 91 280 284 8 17 317 246 247 238 229
340 338 336 337 348 348 345 33 69 82 100 114 99 102 117 1 48 327 277 241 318 249 10 120 67 82 24 62 14 7 4 331 325 13 338 88 282 330 336 353 316 313 265 242 238
341 338 338 342 356 353 7 90 77 85 78 64 62 53 357 317 320 322 242 227 65 48 18 43 46 59 33 64 213 288 344 304 260 310 4 3 324 320 339 23 7 343 342 271 234
339 338 341 350 6 5 57 117 20 358 42 76 285 294 306 322 316 350 60 116 55 54 40 7 54 228 235 198 190 197 202 251 261 275 7 358 54 327 324 25 14 3 359 358 311
339 340 351 356 16 32 50 67 80 281 347 305 260 280 275 325 351 340 81 76 71 318 5 16 251 233 243 207 206 236 270 272 288 313 96 78 29 307 4 18 5 352 355 351 352
342 351 355 3 49 50 59 48 20 140 78 320 280 313 310 11 339 293 69 105 149 291 192 170 245 10 176 239 268 248 201 228 230 343 48 72 345 354 354 26 31 22 9 20 10
353 360 0 26 89 34 56 3 4 167 81 324 350 352 7 40 356 312 17 103 33 272 201 225 274 46 135 272 139 300 207 120 78 59 213 63 265 319 7 22 22 5 15 14 13
1 6 10 33 53 53 330 345 356 274 67 344 336 304 357 71 300 357 18 31 254 282 70 262 315 335 310 229 173 227 77 301 213 116 40 305 108 268 15 38 10 4 7 13 19
7 10 14 29 56 2 344 342 135 48 98 357 341 352 11 7 333 349 35 30 53 317 333 240 295 237 215 330 245 81 66 48 51 93 353 239 127 290 258 129 54 11 16 9 10
7 24 30 29 338 341 343 75 42 95 313 340 342 2 351 310 342 39 44 19 27 10 3 332 315 308 96 11 32 72 56 342 358 11 226 68 66 281 46 59 78 56 20 7 12
340 44 25 10 340 329 8 55 75 104 342 339 346 312 81 8 30 9 55 29 15 21 27 25 329 352 355 144 192 63 137 151 255 242 276 8 120 1 44 66 62 60 44 33 27
87 250 12 351 344 318 74 54 112 2 318 344 315 41 348 7 44 71 52 6 331 12 70 6 277 321 290 4 84 148 181 182 116 18 54 147 84 79 58 36 33 52 52 36 29
37 343 355 350 33 67 70 117 92 12 336 14 43 28 356 351 24 46 20 2 334 17 327 26 310 321 301 18 43 158 176 13 14 211 238 26 123 211 69 40 28 35 44 34 30
49 50 353 358 40 46 93 112 103 13 29 44 44 20 11 14 325 17 20 19 9 320 23 4 107 291 328 59 51 349 333 51 122 150 180 168 219 348 150 81 74 40 38 38 30
48 52 352 13 50 33 65 52 28 0 10 35 89 48 28 357 347 42 75 12 348 318 3 360 140 270 250 274 296 283 7 111 130 255 34 133 213 355 74 69 73 43 28 29 39
64 295 356 11 98 56 61 71 57 26 18 15 33 28 19 21 29 33 35 22 10 28 33 326 2 339 339 4 10 37 20 15 317 60 209 147 205 67 35 46 31 73 36 22 30
67 34 341 38 46 87 80 24 90 42 56 65 18 44 18 28 13 32 351 3 344 10 11 14 56 176 215 278 296 310 318 9 41 324 307 241 134 35 32 48 29 30 24 24 14
38 79 214 9 12 64 71 41 46 18 17 24 42 52 14 347 349 21 7 331 4 356 30 63 298 6 286 275 270 264 321 349 267 236 243 141 102 66 36 43 25 8 23 24 12
96 105 35 39 7 50 25 15 51 22 33 12 69 344 25 83 136 296 19 297 268 352 30 355 297 7 286 298 308 248 359 38 41 356 88 106 82 270 7 11 58 35 16 6 344
43 75 98 339 34 75 4 64 44 73 47 80 85 24 10 259 253 239 217 234 249 307 359 308 331 26 270 327 310 283 13 82 77 35 69 71 189 7 344 337 3 26 6 331 315